User: anonymous   Login
Location: Theydon Bois
(51.6750°N, 0.1050°E)
Time: 11:09:52
(UTC+01:00)
Language:

Timation 2 Rocket - Orbit

View from above orbital plane
View from above orbital plane
View from above satellite
View from above satellite

Ground track
Ground track

The orbit data is extracted from the following two-line orbital elements,

1  4159U 69082AB  18171.95023165 -.00000029 +00000-0 +21902-4 0  9993
2  4159 069.9623 117.3655 0115902 349.9754 009.9027 13.72398016438230
Epoch (UTC): 20 June 2018 22:48:20
Eccentricity: 0.0115902
inclination: 69.9623°
perigee height: 905 km
apogee height: 1076 km
right ascension of ascending node: 117.3655°
argument of perigee: 349.9754°
revolutions per day: 13.72398016
mean anomaly at epoch: 9.9027°
orbit number at epoch: 43823

The dashed part of the orbit path shows where the satellite is in the earth's shadow,  

DLR